Tracking 35274 objects as of 12-Sep-2026
HD Live streaming from Space Station
objects crossing your sky now

COSMOS 880 DEB


COSMOS 880 DEB is no longer on orbit


NORAD ID: 11210
Int'l Code: 1976-120AM
Launch date: December 9, 1976
Source: Commonwealth of Independent States (former USSR) (CIS)
Launch site: PLESETSK MISSILE AND SPACE COMPLEX (PKMTR)
Decay date: 1983-07-30

Note: This is SATELLITE DEBRIS
Your satellite tracking list
Your tracking list is empty




NASA's NSSDC Master Catalog

Two Line Element Set (TLE):
1 11210U 76120 AM 83211.06007202  .09616942 +31084-4 +23998-3 0  9994
2 11210 065.8063 355.9041 0015516 271.8024 088.8441 16.44520271368174
Source of the keplerian elements: AFSPC